Total_Precipitation_Accumulation
0.79 0.73 0.68 0.62 0.58 0.57 0.57 0.49 0.41 0.35 0.32 0.24 0.16 0.10 0.11 0.10 0.11 0.06 0.03 0.06 0.08 0.06 0.04 0.02 0.01 0.01 0.01 0.02 0.03 0.04 0.06 0.07 0.06 0.05 0.04 0.03 0.02 0.02
0.66 0.62 0.59 0.58 0.58 0.57 0.57 0.56 0.50 0.41 0.37 0.31 0.25 0.18 0.19 0.17 0.17 0.09 0.06 0.06 0.06 0.06 0.04 0.03 0.02 0.01 0.01 0.01 0.01 0.01 0.01 0.02 0.02 0.02 0.02 0.02 0.03 0.02
0.59 0.53 0.51 0.49 0.51 0.50 0.50 0.51 0.50 0.45 0.35 0.34 0.27 0.22 0.26 0.26 0.26 0.18 0.13 0.10 0.08 0.06 0.05 0.04 0.04 0.04 0.03 0.02 0.01 0.01 0.01 0.01 0.01 0.02 0.02 0.02 0.02 0.01
0.48 0.48 0.47 0.45 0.44 0.40 0.40 0.40 0.43 0.42 0.36 0.31 0.27 0.22 0.23 0.26 0.30 0.29 0.25 0.22 0.19 0.17 0.15 0.09 0.07 0.06 0.04 0.03 0.02 0.01 0.01 0.01 0.01 0.01 0.02 0.02 0.02 0.01
0.33 0.34 0.38 0.39 0.40 0.37 0.34 0.36 0.38 0.37 0.39 0.32 0.30 0.28 0.23 0.20 0.24 0.25 0.26 0.33 0.30 0.28 0.33 0.24 0.17 0.13 0.11 0.08 0.06 0.05 0.04 0.03 0.02 0.02 0.02 0.03 0.03 0.03
0.35 0.33 0.31 0.29 0.29 0.32 0.34 0.41 0.43 0.47 0.47 0.41 0.39 0.37 0.33 0.27 0.26 0.30 0.36 0.42 0.43 0.34 0.34 0.37 0.33 0.27 0.22 0.20 0.19 0.16 0.14 0.11 0.09 0.07 0.06 0.05 0.05 0.06
0.35 0.38 0.35 0.29 0.24 0.23 0.21 0.27 0.31 0.42 0.46 0.46 0.46 0.46 0.43 0.35 0.31 0.38 0.43 0.50 0.52 0.48 0.41 0.39 0.39 0.33 0.31 0.27 0.25 0.24 0.23 0.21 0.18 0.14 0.11 0.10 0.08 0.07
0.40 0.42 0.38 0.31 0.31 0.24 0.18 0.16 0.18 0.21 0.28 0.33 0.37 0.41 0.45 0.46 0.49 0.49 0.51 0.49 0.49 0.57 0.46 0.47 0.43 0.38 0.36 0.30 0.29 0.31 0.32 0.28 0.23 0.19 0.14 0.12 0.11 0.10
0.38 0.49 0.54 0.48 0.44 0.42 0.37 0.26 0.19 0.14 0.17 0.22 0.31 0.35 0.35 0.38 0.45 0.50 0.56 0.58 0.48 0.47 0.35 0.33 0.32 0.28 0.29 0.29 0.26 0.27 0.31 0.27 0.23 0.19 0.17 0.16 0.15 0.16
0.32 0.42 0.63 0.64 0.59 0.55 0.56 0.59 0.45 0.29 0.24 0.20 0.26 0.26 0.23 0.29 0.40 0.46 0.45 0.32 0.24 0.20 0.14 0.15 0.19 0.18 0.18 0.17 0.16 0.15 0.16 0.16 0.15 0.15 0.16 0.16 0.16 0.17
0.26 0.35 0.49 0.60 0.60 0.59 0.55 0.56 0.52 0.37 0.31 0.26 0.17 0.14 0.14 0.18 0.25 0.34 0.36 0.29 0.20 0.18 0.12 0.09 0.10 0.10 0.10 0.10 0.09 0.08 0.07 0.07 0.08 0.09 0.09 0.10 0.11 0.11
0.13 0.22 0.36 0.40 0.41 0.44 0.50 0.57 0.63 0.43 0.32 0.33 0.27 0.21 0.18 0.23 0.35 0.44 0.45 0.40 0.31 0.31 0.28 0.23 0.20 0.16 0.16 0.13 0.08 0.06 0.05 0.06 0.06 0.06 0.06 0.06 0.06 0.06
0.05 0.12 0.16 0.19 0.23 0.31 0.39 0.47 0.58 0.43 0.38 0.42 0.37 0.26 0.24 0.25 0.29 0.31 0.34 0.40 0.38 0.35 0.39 0.42 0.41 0.38 0.31 0.24 0.15 0.07 0.03 0.02 0.02 0.02 0.02 0.02 0.02 0.02
0.05 0.07 0.08 0.09 0.12 0.16 0.21 0.27 0.36 0.41 0.42 0.46 0.42 0.28 0.19 0.18 0.14 0.13 0.14 0.18 0.21 0.23 0.26 0.24 0.25 0.23 0.18 0.14 0.11 0.07 0.04 0.02 0.01 0.01 0.01 0.02 0.02 0.02
0.05 0.06 0.05 0.06 0.09 0.11 0.13 0.18 0.27 0.39 0.47 0.45 0.36 0.24 0.15 0.13 0.10 0.10 0.11 0.13 0.12 0.10 0.08 0.07 0.08 0.07 0.05 0.04 0.04 0.03 0.03 0.02 0.01 0.01 0.01 0.01 0.01 0.02
0.07 0.06 0.05 0.07 0.09 0.11 0.15 0.19 0.29 0.41 0.47 0.40 0.29 0.19 0.12 0.11 0.10 0.08 0.08 0.08 0.08 0.06 0.04 0.03 0.04 0.04 0.04 0.04 0.03 0.04 0.05 0.04 0.02 0.02 0.02 0.02 0.02 0.03
0.08 0.12 0.13 0.15 0.17 0.21 0.27 0.34 0.36 0.36 0.38 0.33 0.29 0.21 0.16 0.14 0.08 0.04 0.02 0.02 0.04 0.06 0.06 0.04 0.03 0.03 0.03 0.03 0.04 0.05 0.06 0.05 0.05 0.06 0.06 0.04 0.04 0.06
0.11 0.17 0.22 0.26 0.27 0.31 0.36 0.40 0.41 0.39 0.37 0.32 0.25 0.20 0.15 0.11 0.07 0.04 0.03 0.04 0.06 0.05 0.03 0.02 0.01 0.01 0.02 0.04 0.03 0.04 0.07 0.07 0.08 0.09 0.07 0.04 0.04 0.07
0.09 0.20 0.38 0.41 0.35 0.38 0.39 0.38 0.31 0.24 0.23 0.20 0.15 0.09 0.06 0.04 0.04 0.03 0.03 0.02 0.02 0.02 0.02 0.03 0.04 0.04 0.04 0.05 0.07 0.03 0.07 0.09 0.07 0.06 0.05 0.04 0.04 0.04
0.05 0.12 0.24 0.27 0.28 0.30 0.27 0.23 0.16 0.12 0.10 0.07 0.04 0.02 0.02 0.01 0.01 0.01 0.01 0.01 0.01 0.01 0.02 0.04 0.04 0.03 0.04 0.05 0.07 0.08 0.04 0.04 0.04 0.04 0.03 0.02 0.02 0.02
0.06 0.10 0.13 0.15 0.14 0.12 0.10 0.08 0.06 0.04 0.03 0.02 0.02 0.01 0.02 0.01 0.01 0.01 0.01 0.00 0.01 0.01 0.02 0.03 0.02 0.01 0.02 0.04 0.07 0.08 0.05 0.05 0.04 0.02 0.01 0.01 0.01 0.01
0.04 0.05 0.05 0.05 0.04 0.03 0.02 0.02 0.02 0.01 0.01 0.01 0.01 0.01 0.01 0.01 0.01 0.01 0.01 0.01 0.01 0.01 0.01 0.01 0.01 0.02 0.03 0.04 0.06 0.06 0.05 0.04 0.05 0.07 0.05 0.03 0.02 0.01
0.01 0.01 0.01 0.00 0.01 0.01 0.01 0.01 0.01 0.00 0.00 0.00 0.00 0.01 0.02 0.02 0.01 0.01 0.01 0.01 0.01 0.01 0.01 0.00 0.00 0.01 0.01 0.02 0.04 0.04 0.04 0.04 0.05 0.07 0.07 0.06 0.03 0.01